Leadville, CO

9:30 PM MST on February 25, 2018 (GMT -0700)
Lake County

Weather History for KLXV - June, 2012

Change the Weather History Date:

Wednesday, June 13, 2012

  Actual Average Record
Temperature  
Mean Temperature 52 °F -  
Max Temperature 73 °F 65 °F 75 °F (2006)
Min Temperature 31 °F 32 °F 24 °F (2008)
Degree Days  
Heating Degree Days 13 17  
Month to date heating degree days 193 236  
Since 1 June heating degree days 193 236  
Since 1 July heating degree days 10360 10990  
Cooling Degree Days 0 0  
Month to date cooling degree days 0 0  
Year to date cooling degree days 0 0  
Since 1 June cooling degree days 0 0  
Growing Degree Days 4 (Base 50)    
Moisture  
Dew Point 8 °F    
Average Humidity 21    
Maximum Humidity 33    
Minimum Humidity 8    
Precipitation  
Precipitation 0.00 in 0.03 in 0.20 in (2003)
Month to date precipitation 0.13 0.38  
Year to date precipitation 3.83 4.51  
Snow  
Snow 0.00 in - - ()
Month to date snowfall 0.0  
Since 1 June snowfall 0.0  
Snow Depth 0.00 in    
Sea Level Pressure  
Sea Level Pressure 29.77 in    
Wind  
Wind Speed 6 mph (North)    
Max Wind Speed 18 mph    
Max Gust Speed 24 mph    
Visibility 10 miles    
Events      
T = Trace of Precipitation, MM = Missing Value Source: NWS Daily Summary

Daily Weather History Graph

Daily Weather History Graph

Search for Another Location

Airport or City:

Trip Planner

Search our weather history database for the weather conditions in past years. The results will help you decide how hot, cold, wet, or windy it might be!

Date:

Astronomy

Jun. 13, 2012 Rise Set
Actual Time 5:38 AM MDT 8:32 PM MDT
Civil Twilight 5:06 AM MDT 9:05 PM MDT
Nautical Twilight 4:25 AM MDT 9:45 PM MDT
Astronomical Twilight 3:38 AM MDT 10:32 PM MDT
Moon 1:51 AM MDT (6/13) 3:23 PM MDT (6/13)
Length of Visible Light 15h 58m
Length of Day
14h 54m
Waning Crescent, 28% of the Moon is Illuminated
Jun 13
Waning Crescent
Jun 19
New
Jun 26
First Quarter
Jul 3
Full
Jul 10
Last Quarter

Hourly Weather History & Observations

Time (MDT) Temp. Windchill Dew Point Humidity Pressure Visibility Wind Dir Wind Speed Gust Speed Precip Events Conditions
12:53 AM 39.0 °F 36.8 °F 10.0 °F 30% 29.88 in 10.0 mi Variable 3.5 mph - N/A   Clear
1:53 AM 39.0 °F 36.8 °F 8.1 °F 28% 29.88 in 10.0 mi NNE 3.5 mph - N/A   Clear
2:53 AM 42.1 °F 39.2 °F 6.1 °F 23% 29.85 in 10.0 mi NE 4.6 mph - N/A   Clear
3:53 AM 39.0 °F 36.8 °F 7.0 °F 27% 29.84 in 10.0 mi South 3.5 mph - N/A   Clear
4:53 AM 37.0 °F 34.5 °F 7.0 °F 29% 29.87 in 10.0 mi NE 3.5 mph - N/A   Clear
5:53 AM 36.0 °F - 8.1 °F 31% 29.87 in 10.0 mi Calm Calm - N/A   Clear
6:53 AM 39.9 °F 35.8 °F 12.9 °F 33% 29.85 in 10.0 mi NE 5.8 mph - N/A   Clear
7:53 AM 46.0 °F - 10.9 °F 24% 29.85 in 10.0 mi Calm Calm - N/A   Clear
8:53 AM 54.0 °F - 10.0 °F 17% 29.82 in 10.0 mi Calm Calm - N/A   Clear
9:53 AM 61.0 °F - 6.1 °F 11% 29.79 in 10.0 mi Variable 4.6 mph - N/A   Clear
10:53 AM 64.9 °F - 7.0 °F 10% 29.78 in 10.0 mi Variable 6.9 mph - N/A   Clear
11:53 AM 66.9 °F - 6.1 °F 9% 29.79 in 10.0 mi South 15.0 mph 20.7 mph N/A   Partly Cloudy
12:53 PM 69.1 °F - 7.0 °F 9% 29.76 in 10.0 mi Variable 3.5 mph - N/A   Partly Cloudy
1:53 PM 72.0 °F - 7.0 °F 8% 29.70 in 10.0 mi Variable 5.8 mph - N/A   Clear
2:53 PM 71.1 °F - 6.1 °F 8% 29.69 in 10.0 mi West 8.1 mph - N/A   Clear
3:53 PM 69.1 °F - 8.1 °F 9% 29.71 in 10.0 mi West 11.5 mph - N/A   Clear
4:53 PM 70.0 °F - 10.9 °F 10% 29.70 in 10.0 mi West 15.0 mph - N/A   Partly Cloudy
5:53 PM 71.1 °F - 8.1 °F 9% 29.69 in 10.0 mi WNW 8.1 mph 18.4 mph N/A   Clear
6:53 PM 68.0 °F - 7.0 °F 9% 29.69 in 10.0 mi NW 15.0 mph 23.0 mph N/A   Clear
7:53 PM 64.9 °F - 7.0 °F 10% 29.67 in 10.0 mi NW 10.4 mph 17.3 mph N/A   Clear
8:53 PM 57.0 °F - 10.9 °F 16% 29.68 in 10.0 mi NE 5.8 mph - N/A   Clear
9:53 PM 52.0 °F - 10.0 °F 19% 29.68 in 10.0 mi NE 8.1 mph - N/A   Clear
10:53 PM 48.0 °F - 10.0 °F 22% 29.70 in 10.0 mi NE 6.9 mph - N/A   Clear
11:53 PM 48.9 °F - 9.0 °F 20% 29.68 in 10.0 mi ENE 4.6 mph - N/A   Clear